When you browse on this site, cookies collect data to enhance your experience and personalize the content and advertising you see.
Visit our Privacy Policy to learn more. By continuing to use the site, you agree to this use of cookies and data.
  • In United Kingdom
  • List of Countries
  • For 7 days
  • Water Temperature
  • Weather Map
  • Weather Widgets
  • user-avatar
    Login

    Hourly Weather Allende

    Today, 22 October, Tuesday

    Time Temperature Precipitation Wind Pressure Humidity
    00:00 +19°C° 0 mm 2 mps 729 mmHg 40%
    01:00 +19°C° 0 mm 3 mps 729 mmHg 44%
    02:00 +18°C° 0 mm 3 mps 730 mmHg 48%
    03:00 +17°C° 0 mm 2 mps 730 mmHg 51%
    04:00 +16°C° 0 mm 2 mps 730 mmHg 53%
    05:00 +16°C° 0 mm 2 mps 730 mmHg 56%
    06:00 +18°C° 0 mm 1 mps 731 mmHg 52%
    07:00 +19°C° 0 mm 1 mps 732 mmHg 48%
    08:00 +21°C° 0 mm 1 mps 732 mmHg 44%
    09:00 +23°C° 0 mm 2 mps 732 mmHg 39%
    10:00 +24°C° 0 mm 2 mps 732 mmHg 33%
    11:00 +26°C° 0 mm 3 mps 732 mmHg 28%
    12:00 +27°C° 0 mm 3 mps 732 mmHg 27%
    13:00 +27°C° 0 mm 4 mps 731 mmHg 26%
    14:00 +28°C° 0 mm 4 mps 730 mmHg 26%
    15:00 +27°C° 0 mm 4 mps 730 mmHg 29%
    16:00 +25°C° 0 mm 3 mps 730 mmHg 33%
    17:00 +24°C° 0 mm 3 mps 730 mmHg 37%
    18:00 +22°C° 0 mm 3 mps 730 mmHg 37%
    19:00 +21°C° 0 mm 4 mps 731 mmHg 37%
    20:00 +20°C° 0 mm 4 mps 731 mmHg 37%
    21:00 +20°C° 0 mm 4 mps 731 mmHg 47%
    22:00 +19°C° 0 mm 5 mps 731 mmHg 57%
    23:00 +19°C° 0 mm 5 mps 731 mmHg 67%

    Tomorrow, 23 October, Wednesday

    Time Temperature Precipitation Wind Pressure Humidity
    00:00 +17°C° 0 mm 5 mps 730 mmHg 69%
    01:00 +17°C° 0 mm 5 mps 730 mmHg 72%
    02:00 +17°C° 0 mm 5 mps 730 mmHg 74%
    03:00 +17°C° 0 mm 5 mps 730 mmHg 75%
    04:00 +17°C° 0 mm 5 mps 729 mmHg 76%
    05:00 +17°C° 0 mm 5 mps 729 mmHg 77%
    06:00 +19°C° 0 mm 5 mps 730 mmHg 73%
    07:00 +20°C° 0 mm 6 mps 730 mmHg 70%
    08:00 +21°C° 0 mm 7 mps 730 mmHg 67%
    09:00 +22°C° 0 mm 7 mps 730 mmHg 62%
    10:00 +24°C° 0 mm 7 mps 729 mmHg 58%
    11:00 +26°C° 0 mm 7 mps 729 mmHg 54%
    12:00 +27°C° 0 mm 7 mps 728 mmHg 52%
    13:00 +28°C° 0 mm 7 mps 727 mmHg 51%
    14:00 +28°C° 0 mm 7 mps 726 mmHg 49%
    15:00 +28°C° 0 mm 6 mps 726 mmHg 52%
    16:00 +27°C° 0 mm 5 mps 726 mmHg 56%
    17:00 +26°C° 0 mm 4 mps 726 mmHg 59%
    18:00 +25°C° 0 mm 5 mps 726 mmHg 62%
    19:00 +24°C° 0 mm 6 mps 727 mmHg 64%
    20:00 +23°C° 0 mm 7 mps 727 mmHg 67%
    21:00 +23°C° 0 mm 7 mps 727 mmHg 72%
    22:00 +22°C° 0 mm 7 mps 727 mmHg 77%
    23:00 +22°C° 0 mm 7 mps 727 mmHg 82%

    Day after tomorrow, 24 October, Thursday

    Time Temperature Precipitation Wind Pressure Humidity
    00:00 +22°C° 0 mm 6 mps 727 mmHg 84%
    01:00 +21°C° 0 mm 6 mps 726 mmHg 87%
    02:00 +21°C° 0 mm 5 mps 726 mmHg 89%
    03:00 +21°C° 0 mm 4 mps 726 mmHg 90%
    04:00 +21°C° 0 mm 4 mps 726 mmHg 92%
    05:00 +21°C° 0 mm 3 mps 726 mmHg 93%
    06:00 +21°C° 0 mm 4 mps 726 mmHg 90%
    07:00 +22°C° 0 mm 4 mps 727 mmHg 87%
    08:00 +23°C° 0 mm 4 mps 727 mmHg 84%
    09:00 +25°C° 0 mm 4 mps 727 mmHg 78%
    10:00 +26°C° 0 mm 4 mps 727 mmHg 73%
    11:00 +27°C° 0 mm 4 mps 727 mmHg 68%
    12:00 +28°C° 0 mm 4 mps 726 mmHg 67%
    13:00 +28°C° 0 mm 4 mps 726 mmHg 66%
    14:00 +28°C° 0 mm 3 mps 725 mmHg 65%
    15:00 +28°C° 0 mm 3 mps 726 mmHg 67%
    16:00 +27°C° 0 mm 3 mps 726 mmHg 69%
    17:00 +27°C° 0 mm 2 mps 726 mmHg 71%
    18:00 +22°C° 0.9 mm 6 mps 727 mmHg 71%
    19:00 +18°C° 0.9 mm 10 mps 728 mmHg 71%
    20:00 +13°C° 0.9 mm 14 mps 729 mmHg 71%
    21:00 +12°C° 0 mm 14 mps 730 mmHg 69%
    22:00 +10°C° 0 mm 14 mps 731 mmHg 66%
    23:00 +10°C° 0 mm 14 mps 732 mmHg 64%

    25 October, Friday

    Time Temperature Precipitation Wind Pressure Humidity
    00:00 +9°C° 0 mm 13 mps 733 mmHg 63%
    01:00 +9°C° 0 mm 13 mps 733 mmHg 62%
    02:00 +9°C° 0 mm 12 mps 734 mmHg 60%
    03:00 +8°C° 0 mm 11 mps 734 mmHg 59%
    04:00 +8°C° 0 mm 11 mps 735 mmHg 58%
    05:00 +8°C° 0 mm 10 mps 735 mmHg 57%
    06:00 +8°C° 0 mm 10 mps 736 mmHg 56%
    07:00 +8°C° 0 mm 10 mps 736 mmHg 54%
    08:00 +8°C° 0 mm 9 mps 737 mmHg 53%
    09:00 +11°C° 0 mm 9 mps 737 mmHg 48%
    10:00 +12°C° 0 mm 9 mps 736 mmHg 42%
    11:00 +13°C° 0 mm 9 mps 736 mmHg 37%
    12:00 +15°C° 0 mm 8 mps 736 mmHg 34%
    13:00 +16°C° 0 mm 8 mps 735 mmHg 32%
    14:00 +17°C° 0 mm 7 mps 734 mmHg 30%
    15:00 +16°C° 0 mm 6 mps 734 mmHg 33%
    16:00 +15°C° 0 mm 4 mps 734 mmHg 36%
    17:00 +14°C° 0 mm 3 mps 734 mmHg 38%
    18:00 +14°C° 0 mm 2 mps 734 mmHg 41%
    19:00 +13°C° 0 mm 1 mps 734 mmHg 43%
    20:00 +12°C° 0 mm 1 mps 734 mmHg 45%
    21:00 +12°C° 0 mm 1 mps 734 mmHg 47%
    22:00 +10°C° 0 mm 0 mps 734 mmHg 48%
    23:00 +10°C° 0 mm 0 mps 734 mmHg 50%

    26 October, Saturday

    Time Temperature Precipitation Wind Pressure Humidity
    00:00 +11°C° 0 mm 1 mps 734 mmHg 50%
    01:00 +10°C° 0 mm 1 mps 734 mmHg 50%
    02:00 +10°C° 0 mm 1 mps 733 mmHg 50%
    03:00 +10°C° 0 mm 1 mps 733 mmHg 50%
    04:00 +10°C° 0 mm 1 mps 733 mmHg 50%
    05:00 +10°C° 0 mm 1 mps 732 mmHg 50%
    06:00 +12°C° 0 mm 1 mps 733 mmHg 46%
    07:00 +13°C° 0 mm 2 mps 733 mmHg 42%
    08:00 +15°C° 0 mm 2 mps 733 mmHg 38%
    09:00 +17°C° 0 mm 2 mps 733 mmHg 35%
    10:00 +18°C° 0 mm 2 mps 732 mmHg 32%
    11:00 +19°C° 0 mm 2 mps 732 mmHg 28%
    12:00 +20°C° 0 mm 2 mps 731 mmHg 27%
    13:00 +21°C° 0 mm 2 mps 730 mmHg 26%
    14:00 +21°C° 0 mm 2 mps 729 mmHg 25%
    15:00 +20°C° 0 mm 2 mps 728 mmHg 29%
    16:00 +19°C° 0 mm 2 mps 728 mmHg 33%
    17:00 +17°C° 0 mm 3 mps 728 mmHg 37%
    18:00 +16°C° 0 mm 3 mps 728 mmHg 37%
    19:00 +16°C° 0 mm 3 mps 728 mmHg 37%
    20:00 +14°C° 0 mm 3 mps 728 mmHg 37%
    21:00 +13°C° 0 mm 3 mps 728 mmHg 39%
    22:00 +13°C° 0 mm 3 mps 728 mmHg 40%
    23:00 +12°C° 0 mm 3 mps 727 mmHg 42%

    27 October, Sunday

    Time Temperature Precipitation Wind Pressure Humidity
    00:00 +12°C° 0 mm 3 mps 727 mmHg 43%
    01:00 +12°C° 0 mm 3 mps 727 mmHg 44%
    02:00 +11°C° 0 mm 3 mps 726 mmHg 45%
    03:00 +11°C° 0 mm 3 mps 726 mmHg 46%
    04:00 +11°C° 0 mm 3 mps 726 mmHg 48%
    05:00 +10°C° 0 mm 3 mps 726 mmHg 49%
    06:00 +12°C° 0 mm 3 mps 726 mmHg 47%
    07:00 +13°C° 0 mm 3 mps 727 mmHg 45%
    08:00 +16°C° 0 mm 3 mps 727 mmHg 43%
    09:00 +18°C° 0 mm 4 mps 727 mmHg 40%
    10:00 +20°C° 0 mm 4 mps 727 mmHg 37%
    11:00 +22°C° 0 mm 4 mps 727 mmHg 33%
    12:00 +23°C° 0 mm 4 mps 726 mmHg 33%
    13:00 +25°C° 0 mm 4 mps 726 mmHg 32%
    14:00 +26°C° 0 mm 4 mps 725 mmHg 31%
    15:00 +23°C° 0 mm 4 mps 725 mmHg 36%
    16:00 +21°C° 0 mm 3 mps 726 mmHg 40%
    17:00 +20°C° 0 mm 3 mps 726 mmHg 45%
    18:00 +19°C° 0 mm 3 mps 726 mmHg 46%
    19:00 +18°C° 0 mm 3 mps 727 mmHg 47%
    20:00 +17°C° 0 mm 2 mps 727 mmHg 47%
    21:00 +17°C° 0 mm 2 mps 728 mmHg 49%
    22:00 +16°C° 0 mm 2 mps 728 mmHg 51%
    23:00 +15°C° 0 mm 2 mps 729 mmHg 52%

    28 October, Monday

    Time Temperature Precipitation Wind Pressure Humidity
    00:00 +14°C° 0 mm 3 mps 730 mmHg 52%
    01:00 +14°C° 0 mm 4 mps 730 mmHg 52%
    02:00 +13°C° 0 mm 6 mps 731 mmHg 52%
    03:00 +12°C° 0 mm 7 mps 731 mmHg 53%
    04:00 +11°C° 0 mm 7 mps 732 mmHg 55%
    05:00 +10°C° 0 mm 8 mps 732 mmHg 56%
    06:00 +10°C° 0 mm 9 mps 733 mmHg 55%
    07:00 +11°C° 0 mm 9 mps 734 mmHg 54%
    08:00 +11°C° 0 mm 9 mps 734 mmHg 53%
    09:00 +12°C° 0 mm 8 mps 734 mmHg 50%
    10:00 +13°C° 0 mm 8 mps 734 mmHg 47%
    11:00 +15°C° 0 mm 7 mps 734 mmHg 45%
    12:00 +16°C° 0 mm 6 mps 733 mmHg 43%
    13:00 +17°C° 0 mm 5 mps 732 mmHg 42%
    14:00 +19°C° 0 mm 4 mps 731 mmHg 40%
    15:00 +18°C° 0 mm 3 mps 730 mmHg 45%
    16:00 +16°C° 0 mm 2 mps 730 mmHg 51%
    17:00 +15°C° 0 mm 1 mps 730 mmHg 56%
    18:00 +15°C° 0 mm 1 mps 730 mmHg 56%
    19:00 +15°C° 0 mm 1 mps 730 mmHg 56%
    20:00 +14°C° 0 mm 2 mps 730 mmHg 56%
    21:00 +14°C° 0 mm 2 mps 730 mmHg 57%
    22:00 +14°C° 0 mm 2 mps 730 mmHg 57%
    23:00 +14°C° 0 mm 2 mps 730 mmHg 58%
    Show more